• In Romania
  • List of Countries
  • For 7 days
  • Water Temperature
  • Satellite Maps
  • Weather Map
  • Weather Widgets
  • user-avatar
    Login

    Hourly Weather Wien

    Today, 26 July, Wednesday

    Time Temperature Precipitation Wind Pressure Humidity
    00:00 +14°C° 0 mm 4 mps 736 mmHg 74%
    01:00 +14°C° 0 mm 4 mps 736 mmHg 76%
    02:00 +14°C° 0 mm 4 mps 736 mmHg 76%
    03:00 +13°C° 0 mm 4 mps 736 mmHg 77%
    04:00 +13°C° 0 mm 3 mps 736 mmHg 77%
    05:00 +14°C° 0 mm 4 mps 736 mmHg 73%
    06:00 +15°C° 0 mm 4 mps 736 mmHg 69%
    07:00 +17°C° 0 mm 2 mps 735 mmHg 69%
    08:00 +17°C° 0.1 mm 3 mps 735 mmHg 69%
    09:00 +17°C° 0.1 mm 3 mps 735 mmHg 69%
    10:00 +17°C° 0.1 mm 3 mps 735 mmHg 69%
    11:00 +18°C° 0.1 mm 4 mps 735 mmHg 68%
    12:00 +18°C° 0.1 mm 4 mps 735 mmHg 66%
    13:00 +19°C° 0 mm 5 mps 735 mmHg 65%
    14:00 +19°C° 0.1 mm 6 mps 735 mmHg 64%
    15:00 +19°C° 0.1 mm 6 mps 735 mmHg 63%
    16:00 +20°C° 0.1 mm 7 mps 736 mmHg 61%
    17:00 +19°C° 0.1 mm 6 mps 736 mmHg 65%
    18:00 +17°C° 0.1 mm 5 mps 736 mmHg 69%
    19:00 +17°C° 0.1 mm 5 mps 736 mmHg 72%
    20:00 +16°C° 0.3 mm 5 mps 737 mmHg 76%
    21:00 +16°C° 0.3 mm 5 mps 737 mmHg 80%
    22:00 +15°C° 0.3 mm 5 mps 737 mmHg 84%
    23:00 +15°C° 0.1 mm 5 mps 737 mmHg 84%

    Tomorrow, 27 July, Thursday

    Time Temperature Precipitation Wind Pressure Humidity
    00:00 +15°C° 0.1 mm 5 mps 738 mmHg 84%
    01:00 +14°C° 0.1 mm 5 mps 738 mmHg 85%
    02:00 +14°C° 0.4 mm 5 mps 738 mmHg 86%
    03:00 +14°C° 0.4 mm 5 mps 738 mmHg 87%
    04:00 +14°C° 0.4 mm 5 mps 738 mmHg 88%
    05:00 +14°C° 0.9 mm 5 mps 738 mmHg 89%
    06:00 +14°C° 0.9 mm 5 mps 738 mmHg 89%
    07:00 +15°C° 0.9 mm 5 mps 738 mmHg 90%
    08:00 +15°C° 0.5 mm 5 mps 739 mmHg 88%
    09:00 +16°C° 0.5 mm 5 mps 739 mmHg 86%
    10:00 +17°C° 0.5 mm 5 mps 739 mmHg 83%
    11:00 +19°C° 0.3 mm 5 mps 739 mmHg 78%
    12:00 +20°C° 0.3 mm 4 mps 739 mmHg 72%
    13:00 +21°C° 0.3 mm 4 mps 739 mmHg 66%
    14:00 +21°C° 0.2 mm 4 mps 739 mmHg 64%
    15:00 +22°C° 0.2 mm 4 mps 739 mmHg 63%
    16:00 +22°C° 0.2 mm 4 mps 739 mmHg 62%
    17:00 +21°C° 0 mm 4 mps 739 mmHg 66%
    18:00 +20°C° 0 mm 4 mps 739 mmHg 69%
    19:00 +19°C° 0 mm 4 mps 739 mmHg 73%
    20:00 +18°C° 0 mm 3 mps 740 mmHg 75%
    21:00 +18°C° 0 mm 3 mps 740 mmHg 78%
    22:00 +17°C° 0 mm 3 mps 740 mmHg 80%
    23:00 +17°C° 0.1 mm 2 mps 741 mmHg 82%

    Day after tomorrow, 28 July, Friday

    Time Temperature Precipitation Wind Pressure Humidity
    00:00 +17°C° 0.1 mm 2 mps 741 mmHg 83%
    01:00 +17°C° 0.1 mm 2 mps 741 mmHg 85%
    02:00 +17°C° 0 mm 2 mps 741 mmHg 86%
    03:00 +17°C° 0 mm 2 mps 741 mmHg 86%
    04:00 +17°C° 0 mm 2 mps 741 mmHg 87%
    05:00 +18°C° 0 mm 2 mps 741 mmHg 82%
    06:00 +19°C° 0 mm 3 mps 741 mmHg 78%
    07:00 +20°C° 0 mm 3 mps 741 mmHg 73%
    08:00 +22°C° 0 mm 3 mps 741 mmHg 66%
    09:00 +25°C° 0 mm 3 mps 742 mmHg 58%
    10:00 +27°C° 0 mm 3 mps 742 mmHg 51%
    11:00 +27°C° 0.2 mm 4 mps 742 mmHg 52%
    12:00 +27°C° 0.2 mm 4 mps 742 mmHg 53%
    13:00 +27°C° 0.2 mm 5 mps 742 mmHg 55%
    14:00 +26°C° 0.1 mm 5 mps 742 mmHg 59%
    15:00 +25°C° 0.1 mm 4 mps 742 mmHg 63%
    16:00 +22°C° 0.1 mm 4 mps 742 mmHg 66%
    17:00 +22°C° 0 mm 4 mps 742 mmHg 67%
    18:00 +22°C° 0 mm 4 mps 742 mmHg 67%
    19:00 +22°C° 0 mm 3 mps 742 mmHg 67%
    20:00 +21°C° 0 mm 3 mps 743 mmHg 71%
    21:00 +20°C° 0 mm 3 mps 743 mmHg 75%
    22:00 +19°C° 0 mm 3 mps 744 mmHg 78%
    23:00 +19°C° 0 mm 3 mps 744 mmHg 80%

    29 July, Saturday

    Time Temperature Precipitation Wind Pressure Humidity
    00:00 +19°C° 0 mm 3 mps 744 mmHg 81%
    01:00 +18°C° 0 mm 2 mps 745 mmHg 82%
    02:00 +18°C° 0 mm 2 mps 745 mmHg 83%
    03:00 +17°C° 0 mm 2 mps 745 mmHg 84%
    04:00 +18°C° 0 mm 1 mps 745 mmHg 85%
    05:00 +19°C° 0 mm 1 mps 745 mmHg 79%
    06:00 +21°C° 0 mm 1 mps 745 mmHg 73%
    07:00 +20°C° 0 mm 0 mps 745 mmHg 67%
    08:00 +24°C° 0 mm 1 mps 745 mmHg 61%
    09:00 +26°C° 0 mm 2 mps 746 mmHg 55%
    10:00 +28°C° 0 mm 2 mps 746 mmHg 49%
    11:00 +29°C° 0 mm 2 mps 745 mmHg 46%
    12:00 +31°C° 0 mm 2 mps 745 mmHg 43%
    13:00 +32°C° 0 mm 2 mps 745 mmHg 39%
    14:00 +32°C° 0 mm 2 mps 745 mmHg 39%
    15:00 +32°C° 0 mm 2 mps 744 mmHg 39%
    16:00 +34°C° 0 mm 2 mps 744 mmHg 39%
    17:00 +31°C° 0 mm 2 mps 744 mmHg 45%
    18:00 +29°C° 0 mm 2 mps 744 mmHg 50%
    19:00 +28°C° 0 mm 1 mps 744 mmHg 56%
    20:00 +27°C° 0.2 mm 2 mps 744 mmHg 61%
    21:00 +26°C° 0.2 mm 2 mps 745 mmHg 65%
    22:00 +25°C° 0.2 mm 2 mps 745 mmHg 69%
    23:00 +24°C° 0.1 mm 1 mps 745 mmHg 72%

    30 July, Sunday

    Time Temperature Precipitation Wind Pressure Humidity
    00:00 +23°C° 0.1 mm 1 mps 744 mmHg 74%
    01:00 +23°C° 0.1 mm 1 mps 744 mmHg 76%
    02:00 +22°C° 0.2 mm 1 mps 744 mmHg 78%
    03:00 +22°C° 0.2 mm 1 mps 744 mmHg 80%
    04:00 +21°C° 0.2 mm 1 mps 744 mmHg 82%
    05:00 +22°C° 0.2 mm 1 mps 744 mmHg 79%
    06:00 +24°C° 0.2 mm 1 mps 744 mmHg 76%
    07:00 +25°C° 0.2 mm 2 mps 744 mmHg 73%
    08:00 +27°C° 0.1 mm 3 mps 743 mmHg 66%
    09:00 +29°C° 0.1 mm 3 mps 743 mmHg 59%
    10:00 +32°C° 0.1 mm 4 mps 743 mmHg 52%
    11:00 +33°C° 0 mm 4 mps 743 mmHg 47%
    12:00 +34°C° 0 mm 4 mps 742 mmHg 42%
    13:00 +36°C° 0 mm 4 mps 742 mmHg 37%
    14:00 +36°C° 0 mm 4 mps 742 mmHg 37%
    15:00 +36°C° 0 mm 4 mps 741 mmHg 37%
    16:00 +36°C° 0 mm 3 mps 741 mmHg 36%
    17:00 +35°C° 0 mm 3 mps 741 mmHg 41%
    18:00 +32°C° 0 mm 2 mps 741 mmHg 47%
    19:00 +30°C° 0 mm 2 mps 741 mmHg 52%
    20:00 +29°C° 0.6 mm 2 mps 741 mmHg 57%
    21:00 +27°C° 0.6 mm 2 mps 742 mmHg 63%
    22:00 +26°C° 0.6 mm 2 mps 742 mmHg 68%
    23:00 +25°C° 0.5 mm 2 mps 742 mmHg 72%

    31 July, Monday

    Time Temperature Precipitation Wind Pressure Humidity
    00:00 +24°C° 0.5 mm 2 mps 742 mmHg 76%
    01:00 +23°C° 0.5 mm 2 mps 742 mmHg 80%
    02:00 +23°C° 0.3 mm 2 mps 742 mmHg 82%
    03:00 +23°C° 0.3 mm 2 mps 742 mmHg 84%
    04:00 +21°C° 0.3 mm 2 mps 743 mmHg 86%
    05:00 +23°C° 0 mm 2 mps 743 mmHg 81%
    06:00 +24°C° 0 mm 2 mps 743 mmHg 77%
    07:00 +25°C° 0 mm 3 mps 744 mmHg 73%
    08:00 +27°C° 0 mm 3 mps 744 mmHg 65%
    09:00 +29°C° 0 mm 2 mps 744 mmHg 57%
    10:00 +31°C° 0 mm 2 mps 744 mmHg 49%
    11:00 +32°C° 0 mm 2 mps 744 mmHg 46%
    12:00 +34°C° 0 mm 2 mps 744 mmHg 43%
    13:00 +35°C° 0 mm 2 mps 744 mmHg 39%
    14:00 +35°C° 0 mm 2 mps 744 mmHg 38%
    15:00 +36°C° 0 mm 2 mps 744 mmHg 37%
    16:00 +36°C° 0 mm 2 mps 744 mmHg 37%
    17:00 +34°C° 0 mm 2 mps 744 mmHg 42%
    18:00 +32°C° 0 mm 2 mps 744 mmHg 47%
    19:00 +30°C° 0 mm 2 mps 744 mmHg 53%
    20:00 +29°C° 0 mm 2 mps 744 mmHg 56%
    21:00 +28°C° 0 mm 2 mps 744 mmHg 58%
    22:00 +27°C° 0 mm 2 mps 744 mmHg 61%
    23:00 +26°C° 0 mm 2 mps 744 mmHg 63%
    Show more